Location: ??
(31.9467°N, 34.8903°E)
Time: 16:57:41
(UTC+00:00)

Cosmos 1892 - Pass Details

Date: 29 October 2020
Orbit: 504 x 524 km, 82.5° (Epoch: 29 November)

Event Time Altitude Azimuth Distance (km) Brightness Sun altitude
Rises 15:23:09 0° 9° (N) 2,659 6.1 -7.0°
Reaches altitude 10° 15:25:38 10° 25° (NNE) 1,766 5.1 -7.5°
Maximum altitude 15:28:46 23° 78° (ENE) 1,145 3.8 -8.2°
Drops below altitude 10° 15:31:52 10° 132° (SE) 1,755 5.0 -8.8°
Sets 15:34:19 0° 147° (SSE) 2,636 6.1 -9.3°
